Voltar ao catálogo

SL-3 R/B

AtivoPO
NORAD 9482·ROCKET BODY·🇷🇺 Russia

Lançado Oct 15, 1976 de Plesetsk Cosmodrome

Loading…

Próximas Passagens (próximas 24 horas)

TLE

AtualizadoSource: Space-Track

Época: Sep 14, 2026, 11:04 UTC

1 09482U 76102B   26257.46139470 -.00000034  00000-0 -26369-4 0  9994
2 09482  81.2523  83.4147 0081487 354.0679   5.9517 14.08001631562582

Acompanhe SL-3 R/B em tempo real com AllMySat

Download on the App Store